Lid_Strength_Index
12 11 9 10 11 12 14 14 14 13 12 9 8 8 7 7 5 5 5 5 5 5 4 4 3 3 3 2 2 2 2 2 2 1 1 1 2 3 3 3 3 3 3 2
13 9 9 10 10 10 11 12 14 13 12 9 6 8 8 6 6 6 5 5 5 5 4 4 3 3 3 3 2 2 2 2 2 2 1 1 2 1 2 2 2 1 1 1
15 11 10 12 10 11 12 11 11 13 10 9 8 7 7 6 5 5 5 5 5 5 4 3 3 3 3 3 2 2 2 2 2 2 2 2 1 1 1 1 1 1 2 1
14 14 16 11 9 9 10 10 11 11 9 7 7 7 6 6 7 6 5 5 5 4 4 3 2 2 2 2 2 2 2 2 2 2 2 2 2 2 1 1 1 1 1 1
15 16 12 9 8 9 11 11 9 9 7 7 7 6 7 5 5 6 5 5 4 4 3 3 2 2 2 3 2 2 3 2 3 2 2 2 2 2 2 2 2 2 1 2
14 16 17 11 8 6 9 12 7 7 7 7 7 9 8 6 5 5 4 4 4 4 3 3 2 2 3 3 3 3 2 2 2 2 2 2 2 2 1 2 1 1 1 2
15 15 12 8 7 6 12 12 7 7 6 8 8 8 6 5 5 4 4 4 3 4 3 3 2 2 3 3 3 2 2 2 2 1 2 2 2 1 1 2 2 2 2 3
14 16 16 7 7 11 9 7 7 7 7 7 6 6 5 5 5 5 5 4 4 4 3 3 2 3 3 3 2 2 2 2 2 2 1 1 2 2 2 2 2 2 4 5
11 12 8 6 7 8 8 7 6 7 6 6 6 6 5 6 5 5 5 4 4 4 3 3 2 2 3 3 2 2 2 2 2 2 1 1 2 2 2 2 2 3 4 5
11 10 9 8 6 5 6 5 5 6 5 5 6 5 6 5 5 5 4 5 4 4 4 4 3 2 2 2 2 2 2 2 2 2 2 2 1 2 2 2 3 3 3 4
11 9 8 7 6 6 5 4 4 4 4 5 5 6 5 5 6 6 5 4 4 4 4 4 3 3 2 2 2 2 2 2 2 2 2 2 2 3 2 1 2 3 3 3
13 9 9 8 6 5 6 6 6 5 5 4 4 5 5 5 4 4 4 4 4 4 4 3 3 3 2 2 2 2 3 3 3 2 2 3 8 10 15 14 14 10 9 5
9 6 6 6 5 5 6 5 5 4 4 5 5 4 5 5 4 4 4 4 4 4 3 3 3 3 3 2 2 2 3 3 2 3 2 5 7 6 8 11 14 14 14 13
5 6 7 6 7 5 5 5 6 5 4 4 4 4 4 4 4 4 4 4 3 3 3 3 3 3 2 2 3 3 2 7 2 2 3 4 5 5 5 6 6 6 13 12
5 5 5 5 5 5 5 5 6 7 5 5 5 5 4 5 5 4 4 3 3 3 3 3 3 3 2 2 2 2 2 2 2 4 5 6 6 6 6 5 4 4 11 11
5 5 5 6 5 5 5 5 5 6 6 5 4 4 4 6 4 4 3 3 4 4 4 3 3 2 2 2 3 4 5 7 6 5 7 7 7 7 6 6 6 7 8 9
7 7 6 6 6 6 5 4 4 5 5 4 4 4 4 4 5 6 5 4 3 3 3 3 3 2 2 2 3 4 5 5 6 5 5 5 6 6 6 7 7 7 7 10
5 5 5 5 5 5 5 4 4 4 5 5 4 4 4 4 5 4 4 3 3 3 3 2 3 3 3 3 3 4 5 5 5 5 4 4 4 5 4 4 5 5 7 10
4 5 4 4 4 4 4 4 4 4 4 4 4 4 4 4 4 4 4 4 4 5 3 3 4 3 3 3 3 3 4 5 5 5 4 6 4 4 4 3 4 5 7 9
4 4 4 4 3 4 4 4 3 4 3 5 4 4 4 4 4 4 4 4 4 3 2 2 4 3 3 3 4 4 4 5 4 3 3 3 3 3 4 5 3 4 6 8
4 4 4 4 4 3 3 3 4 4 3 5 5 5 4 3 3 4 5 5 3 3 3 4 3 4 3 4 4 4 5 5 4 3 3 3 3 3 3 3 2 2 3 4
5 5 4 4 4 4 3 3 3 3 4 5 4 4 4 4 4 4 3 4 3 6 4 3 4 3 3 5 4 4 5 5 4 4 3 3 3 3 3 2 2 2 2 4
4 4 4 4 4 4 3 3 3 3 4 4 4 4 4 4 3 4 5 3 2 3 3 3 4 6 6 3 3 4 3 4 4 4 4 4 2 2 2 2 2 2 2 4
4 4 4 4 4 4 5 4 3 3 4 4 3 4 4 4 3 2 3 4 5 5 3 3 5 6 8 4 3 3 3 3 4 4 3 7 3 2 2 2 2 2 3 7
4 4 4 4 4 4 4 4 3 4 3 3 3 3 3 3 3 3 2 2 5 5 3 6 7 7 5 4 4 3 2 3 3 3 3 3 3 3 3 3 2 3 4 5
4 4 4 4 4 3 3 3 4 4 3 4 3 3 2 3 3 3 2 3 2 5 3 4 4 4 3 3 3 3 3 4 4 4 3 2 2 2 3 3 3 4 5 5
4 5 4 4 3 3 3 3 4 4 4 4 4 3 3 2 2 3 5 3 3 3 3 3 4 4 4 3 3 3 3 3 5 2 3 3 3 3 3 3 3 3 4 5